Location: Astronomy Club of Akron Observatory
(40.9700°N, 81.5606°W)
Time: 17:32:49
(UTC-04:00)

Cosmos 1441 Rocket - Visible Passes

Search period start: 21 August 2017 00:00
Search period end: 31 August 2017 00:00
Orbit: 498 x 544 km, 81.1° (Epoch: 21 August)

Date Brightness Start Highest point End Pass type
(mag) Time Alt. Az. Time Alt. Az. Time Alt. Az.
21 Aug 6.3 21:28:17 10° WNW 21:30:05 13° W 21:31:54 10° WSW visible
22 Aug 6.2 21:14:31 10° NW 21:16:42 15° W 21:18:54 10° SW visible
23 Aug 6.2 21:00:49 10° NW 21:03:19 17° W 21:05:49 10° SW visible
24 Aug 6.1 20:47:10 10° NW 20:49:55 20° W 20:52:40 10° SW visible
25 Aug 6.0 20:33:34 10° NW 20:36:31 22° W 20:39:29 10° SW visible
